N2KI-13 Weather Reports


time (UTC)temp
C
wind
direction
speed
KPH
gust
KPH
rain 1hr
cm
rain 24hr
cm
rain mn
cm
humidity
%
barometer
mb
20260510193004 21 245 6.4 19.3 0.00 0.15 0.00 64 1011.8
20260510192504 21 238 6.4 24.1 0.00 0.15 0.00 66 1011.9
20260510192003 21 269 3.2 8.0 0.00 0.15 0.00 68 1011.9
20260510191004 21 225 3.2 11.3 0.00 0.18 0.00 69 1011.9
20260510190003 20 240 1.6 8.0 0.00 0.18 0.00 72 1011.9
20260510185504 20 254 1.6 11.3 0.00 0.20 0.00 72 1012.0
20260510185004 20 258 0.0 0.0 0.00 0.20 0.00 72 1012.1
20260510184004 20 258 0.0 0.0 0.00 0.23 0.00 74 1012.2
20260510183504 20 258 0.0 3.2 0.00 0.25 0.00 72 1012.1
20260510183004 20 258 1.6 4.8 0.00 0.25 0.00 71 1012.1
20260510182503 20 259 1.6 4.8 0.00 0.28 0.00 70 1012.1
20260510182004 20 259 1.6 4.8 0.00 0.28 0.00 69 1012.2
20260510181504 20 261 1.6 8.0 0.00 0.28 0.00 68 1012.1
20260510181003 20 265 1.6 4.8 0.00 0.28 0.00 67 1012.1
20260510180503 20 265 0.0 4.8 0.00 0.28 0.00 66 1012.0
20260510180004 20 266 1.6 4.8 0.00 0.28 0.00 65 1012.0
20260510175504 20 266 0.0 3.2 0.00 0.30 0.00 66 1011.9
20260510175004 20 266 0.0 3.2 0.00 0.30 0.00 64 1011.9
20260510174504 20 266 1.6 3.2 0.00 0.33 0.00 64 1011.9
20260510173504 21 252 3.2 11.3 0.00 0.33 0.00 65 1011.9
20260510173004 21 238 1.6 4.8 0.00 0.33 0.00 65 1011.8
20260510172504 21 238 4.8 9.7 0.00 0.33 0.00 62 1011.8
20260510172004 21 189 0.0 4.8 0.00 0.33 0.00 64 1011.8
20260510171504 21 184 3.2 11.3 0.00 0.33 0.00 64 1011.6
20260510171004 21 246 1.6 8.0 0.00 0.33 0.00 65 1011.8
20260510170504 21 254 0.0 8.0 0.00 0.33 0.00 68 1011.9
20260510170004 20 256 1.6 11.3 0.00 0.33 0.00 67 1012.2
20260510165504 20 248 1.6 11.3 0.00 0.33 0.00 67 1012.2
20260510165003 20 269 0.0 9.7 0.00 0.33 0.00 69 1012.2
20260510164005 20 273 3.2 8.0 0.00 0.33 0.00 68 1012.1
20260510163504 20 205 3.2 11.3 0.00 0.33 0.00 68 1012.2
20260510161504 19 255 0.0 4.8 0.00 0.33 0.00 70 1012.2
20260510161004 19 257 1.6 4.8 0.00 0.33 0.00 70 1012.3
20260510160504 19 258 1.6 9.7 0.00 0.33 0.00 70 1012.4
20260510155504 19 254 0.0 4.8 0.00 0.33 0.00 70 1012.4
20260510155004 19 238 3.2 22.5 0.00 0.33 0.00 69 1012.3
20260510154503 19 295 3.2 9.7 0.00 0.33 0.00 70 1012.4
20260510154004 18 246 1.6 12.9 0.00 0.33 0.00 71 1012.5
20260510153504 18 263 1.6 11.3 0.00 0.33 0.00 73 1012.5
20260510153004 18 316 1.6 9.7 0.00 0.33 0.00 71 1012.5
20260510152004 18 249 4.8 12.9 0.00 0.36 0.00 71 1012.4
20260510151504 18 278 6.4 12.9 0.00 0.36 0.00 71 1012.3
20260510150504 18 268 1.6 8.0 0.00 0.36 0.00 76 1012.4
20260510150004 18 255 0.0 9.7 0.00 0.36 0.00 77 1012.5
20260510145504 18 254 1.6 9.7 0.00 0.36 0.00 77 1012.3
20260510145005 18 269 3.2 9.7 0.00 0.36 0.00 76 1012.4
20260510144503 18 235 1.6 9.7 0.00 0.36 0.00 77 1012.3
20260510144004 17 248 3.2 9.7 0.00 0.36 0.00 79 1012.3
20260510143504 17 208 3.2 9.7 0.00 0.36 0.00 80 1012.4
20260510143006 17 273 3.2 11.3 0.00 0.36 0.00 80 1012.3
20260510142504 16 195 1.6 11.3 0.00 0.36 0.00 81 1012.3
20260510141504 16 267 0.0 4.8 0.00 0.36 0.00 83 1012.4
20260510140504 15 205 1.6 4.8 0.00 0.36 0.00 85 1012.3
20260510135504 15 257 0.0 8.0 0.00 0.36 0.00 88 1012.2
20260510135007 14 258 1.6 8.0 0.00 0.36 0.00 89 1012.2
20260510134504 13 225 1.6 3.2 0.00 0.36 0.00 90 1012.4
20260510134004 13 225 1.6 4.8 0.00 0.36 0.00 91 1012.5
20260510133503 13 224 0.0 4.8 0.00 0.36 0.00 92 1012.6
20260510133004 13 212 0.0 3.2 0.00 0.36 0.00 92 1012.6
20260510132503 13 200 0.0 0.0 0.00 0.36 0.00 93 1012.6
20260510132005 12 200 0.0 1.6 0.00 0.36 0.00 93 1012.6
20260510131504 12 197 0.0 0.0 0.00 0.36 0.00 93 1012.6
20260510131004 12 197 0.0 0.0 0.00 0.36 0.00 93 1012.6
20260510130504 12 197 0.0 0.0 0.00 0.36 0.00 93 1012.5
20260510130004 12 197 0.0 0.0 0.00 0.36 0.00 93 1012.4
20260510125504 11 197 0.0 0.0 0.00 0.36 0.00 93 1012.6
20260510125004 11 197 0.0 0.0 0.00 0.36 0.00 93 1012.6
20260510124504 11 197 0.0 0.0 0.00 0.36 0.00 93 1012.5
20260510124007 11 197 0.0 0.0 0.00 0.36 0.00 93 1012.5
20260510123504 11 197 0.0 0.0 0.00 0.36 0.00 93 1012.5
20260510122504 11 197 0.0 0.0 0.00 0.36 0.00 93 1012.3
20260510122004 11 197 0.0 0.0 0.00 0.36 0.00 92 1012.2
20260510121004 10 197 0.0 0.0 0.00 0.36 0.00 93 1012.1
20260510120503 10 197 0.0 0.0 0.00 0.36 0.00 93 1012.0
20260510120004 10 197 0.0 0.0 0.00 0.36 0.00 93 1012.0
20260510115504 10 197 0.0 0.0 0.00 0.36 0.00 92 1012.0
20260510114504 10 197 0.0 0.0 0.00 0.36 0.00 92 1011.9
20260510114004 10 197 0.0 0.0 0.00 0.36 0.00 92 1012.0
20260510113503 10 197 0.0 0.0 0.00 0.36 0.00 92 1011.9
20260510112504 10 197 0.0 0.0 0.00 0.36 0.00 93 1011.9
20260510112003 10 197 0.0 0.0 0.00 0.36 0.00 93 1011.9
20260510111003 10 197 0.0 0.0 0.00 0.36 0.00 93 1011.5
20260510110505 10 197 0.0 0.0 0.00 0.36 0.00 93 1011.6
20260510110004 10 197 0.0 0.0 0.00 0.36 0.00 93 1011.6
20260510105504 10 197 0.0 0.0 0.00 0.36 0.00 92 1011.6
20260510105004 9 197 0.0 0.0 0.00 0.36 0.00 93 1011.5
20260510104504 9 197 0.0 0.0 0.00 0.36 0.00 92 1011.4
20260510104004 9 197 0.0 0.0 0.00 0.36 0.00 92 1011.4
20260510103505 9 197 0.0 0.0 0.00 0.36 0.00 92 1011.2
20260510103003 9 197 0.0 0.0 0.00 0.36 0.00 92 1011.2
20260510102504 9 197 0.0 0.0 0.00 0.36 0.00 92 1011.2
20260510102003 9 197 0.0 0.0 0.00 0.36 0.00 92 1011.2
20260510101503 9 197 0.0 0.0 0.00 0.36 0.00 92 1011.2
20260510100505 9 197 0.0 0.0 0.00 0.36 0.00 92 1011.1
20260510100004 9 197 0.0 0.0 0.00 0.36 0.00 92 1010.9
20260510095504 9 197 0.0 0.0 0.00 0.36 0.00 92 1010.8
20260510095004 9 197 0.0 0.0 0.00 0.36 0.00 92 1010.8
20260510094504 9 197 0.0 0.0 0.00 0.36 0.00 92 1010.7
20260510094004 9 197 0.0 0.0 0.00 0.36 0.00 92 1010.8
20260510093504 9 197 0.0 0.0 0.00 0.36 0.00 92 1010.7
20260510093003 9 197 0.0 0.0 0.00 0.36 0.00 92 1010.5
20260510092004 9 197 0.0 0.0 0.00 0.36 0.00 92 1010.5
20260510091503 9 197 0.0 0.0 0.00 0.36 0.00 92 1010.6
20260510091004 9 197 0.0 0.0 0.00 0.36 0.00 92 1010.4
20260510090504 9 197 0.0 0.0 0.00 0.36 0.00 92 1010.5
20260510090003 9 197 0.0 0.0 0.00 0.36 0.00 92 1010.7
20260510085505 9 197 0.0 4.8 0.00 0.36 0.00 92 1010.6
20260510085003 9 197 1.6 4.8 0.00 0.36 0.00 92 1010.7
20260510084503 9 193 1.6 4.8 0.00 0.36 0.00 92 1010.7
20260510084004 9 188 0.0 0.0 0.00 0.36 0.00 92 1010.6
20260510083504 9 188 0.0 0.0 0.00 0.36 0.00 92 1010.8
20260510083004 9 188 0.0 0.0 0.00 0.36 0.00 92 1011.0
20260510082003 9 188 0.0 0.0 0.00 0.36 0.00 92 1011.2
20260510081504 8 188 0.0 0.0 0.00 0.36 0.00 92 1011.2
20260510080503 8 188 0.0 0.0 0.00 0.36 0.00 92 1011.3
20260510080004 8 188 0.0 0.0 0.00 0.36 0.00 92 1011.3
20260510075503 8 188 0.0 0.0 0.00 0.36 0.00 92 1011.3
20260510075004 8 188 0.0 0.0 0.00 0.36 0.00 92 1011.4
20260510074504 8 188 0.0 0.0 0.00 0.36 0.00 92 1011.4
20260510074003 8 188 0.0 0.0 0.00 0.36 0.00 92 1011.6
20260510073504 8 188 0.0 0.0 0.00 0.36 0.00 92 1011.7
20260510073004 8 188 0.0 0.0 0.00 0.38 0.00 92 1011.7
20260510072504 8 188 0.0 0.0 0.00 0.38 0.00 92 1011.7
20260510072004 8 188 0.0 0.0 0.00 0.38 0.00 92 1011.7
20260510071504 7 188 0.0 0.0 0.00 0.38 0.00 92 1011.8
20260510071003 7 188 0.0 0.0 0.00 0.38 0.00 92 1011.9
20260510070004 7 188 0.0 0.0 0.00 0.41 0.00 92 1011.9
20260510065504 7 188 0.0 0.0 0.00 0.41 0.00 92 1011.6
20260510065004 7 188 0.0 0.0 0.00 0.43 0.00 92 1011.1
20260510064503 7 188 0.0 0.0 0.00 0.43 0.00 92 1011.2
20260510064004 7 188 0.0 0.0 0.00 0.43 0.00 92 1011.1
20260510062503 7 188 0.0 0.0 0.00 0.43 0.00 91 1011.2
20260510062004 7 188 0.0 0.0 0.00 0.43 0.00 91 1011.1
20260510061503 7 188 0.0 0.0 0.00 0.43 0.00 91 1011.1
20260510061004 7 188 0.0 0.0 0.00 0.43 0.00 91 1011.3
20260510060503 7 188 0.0 0.0 0.00 0.43 0.00 91 1011.5
20260510060004 7 188 0.0 0.0 0.00 0.43 0.00 91 1011.5
20260510055505 7 188 0.0 0.0 0.00 0.43 0.00 91 1011.5
20260510055004 7 188 0.0 0.0 0.00 0.43 0.00 91 1011.4
20260510054504 7 188 0.0 0.0 0.00 0.43 0.00 91 1011.4
20260510054005 7 188 0.0 0.0 0.00 0.43 0.00 91 1011.3
20260510053504 7 188 0.0 0.0 0.00 0.43 0.00 91 1011.3
20260510052504 7 188 0.0 0.0 0.00 0.43 0.00 91 1010.8
20260510052004 7 188 0.0 0.0 0.00 0.43 0.00 91 1010.5
20260510051504 7 188 0.0 0.0 0.00 0.43 0.00 91 1010.6
20260510051004 7 188 0.0 0.0 0.00 0.43 0.00 91 1010.6
20260510050504 7 188 0.0 0.0 0.00 0.43 0.00 90 1010.7
20260510050004 7 188 0.0 0.0 0.00 0.43 0.00 91 1010.8
20260510045004 7 188 0.0 0.0 0.00 0.43 0.00 90 1010.9
20260510044504 7 188 0.0 0.0 0.00 0.43 0.00 90 1011.0
20260510044004 7 188 0.0 0.0 0.00 0.43 0.00 90 1010.9
20260510043504 7 188 0.0 0.0 0.00 0.43 0.00 90 1011.0
20260510043004 7 188 0.0 0.0 0.00 0.43 0.00 90 1010.9
20260510042504 7 188 0.0 0.0 0.00 0.43 0.00 90 1010.8
20260510042005 7 188 0.0 0.0 0.00 0.43 0.00 90 1010.7
20260510041504 7 188 0.0 0.0 0.00 0.43 0.00 90 1010.8
20260510041004 8 188 0.0 0.0 0.00 0.43 0.00 90 1010.7
20260510040504 8 188 0.0 0.0 0.00 0.43 0.00 90 1010.8
20260510040004 8 188 0.0 0.0 0.00 0.43 0.00 90 1010.8
20260510035504 8 188 0.0 0.0 0.00 0.43 0.43 90 1010.6
20260510035004 8 188 0.0 0.0 0.00 0.43 0.43 90 1010.6
20260510034504 8 188 0.0 0.0 0.00 0.43 0.43 90 1010.5
20260510034004 8 188 0.0 0.0 0.00 0.43 0.43 90 1010.4
20260510033504 8 188 0.0 0.0 0.00 0.43 0.43 90 1010.5
20260510032504 8 188 0.0 0.0 0.00 0.43 0.43 90 1010.6
20260510032004 8 188 0.0 0.0 0.00 0.43 0.43 90 1010.6
20260510031505 8 188 0.0 0.0 0.00 0.43 0.43 90 1010.6
20260510030504 8 188 0.0 0.0 0.00 0.43 0.43 90 1010.6
20260510030005 8 188 0.0 0.0 0.00 0.43 0.43 90 1010.6
20260510025504 9 188 0.0 0.0 0.00 0.43 0.43 90 1010.7
20260510025004 9 188 0.0 0.0 0.00 0.43 0.43 90 1010.6
20260510024504 9 188 0.0 0.0 0.00 0.43 0.43 90 1010.6
20260510024004 9 188 0.0 0.0 0.00 0.43 0.43 90 1010.6
20260510023504 9 188 0.0 0.0 0.00 0.43 0.43 89 1010.7
20260510023004 9 188 0.0 0.0 0.00 0.43 0.43 90 1010.7
20260510022505 10 188 0.0 0.0 0.00 0.43 0.43 89 1010.6
20260510022004 10 188 0.0 0.0 0.00 0.43 0.43 89 1010.6
20260510021504 10 188 0.0 0.0 0.00 0.43 0.43 89 1010.5
20260510021004 10 188 0.0 0.0 0.00 0.43 0.43 89 1010.4
20260510020504 10 188 0.0 0.0 0.00 0.43 0.43 89 1010.5
20260510020005 10 188 0.0 0.0 0.00 0.43 0.43 89 1010.5
20260510015504 10 188 0.0 0.0 0.00 0.43 0.43 89 1010.4
20260510015003 10 188 0.0 0.0 0.00 0.43 0.43 89 1010.4
20260510014503 10 188 0.0 0.0 0.00 0.43 0.43 89 1010.4
20260510014004 11 188 0.0 0.0 0.00 0.43 0.43 89 1010.3
20260510013503 11 188 0.0 0.0 0.00 0.43 0.43 89 1010.4
20260510013004 11 188 0.0 0.0 0.00 0.43 0.43 89 1010.4
20260510012504 11 188 0.0 0.0 0.00 0.43 0.43 89 1010.3
20260510011504 11 188 0.0 0.0 0.00 0.43 0.43 88 1010.2
20260510010004 11 188 0.0 0.0 0.00 0.43 0.43 88 1009.9
20260510005504 11 188 0.0 0.0 0.00 0.43 0.43 88 1009.8
20260510005005 11 188 0.0 1.6 0.00 0.43 0.43 88 1009.8
20260510004504 11 188 0.0 0.0 0.00 0.43 0.43 88 1009.8
20260510004004 11 188 1.6 8.0 0.00 0.43 0.43 88 1009.7
20260510003504 11 158 0.0 4.8 0.00 0.43 0.43 88 1009.7
20260510003004 11 219 1.6 9.7 0.00 0.43 0.43 88 1009.7
20260510002504 12 232 0.0 4.8 0.00 0.43 0.43 88 1009.6
20260510002004 12 218 1.6 3.2 0.00 0.43 0.43 88 1009.4
20260510001504 12 212 1.6 4.8 0.00 0.43 0.43 88 1009.4
20260510001004 12 208 1.6 8.0 0.00 0.43 0.43 88 1009.4
20260510000004 12 167 0.0 3.2 0.00 0.43 0.43 88 1009.4
20260509235503 12 157 1.6 11.3 0.00 0.43 0.43 88 1009.4
20260509235005 12 246 0.0 3.2 0.00 0.43 0.43 88 1009.3
20260509234504 12 246 0.0 0.0 0.00 0.43 0.43 88 1009.3
20260509234004 12 246 0.0 4.8 0.00 0.43 0.43 88 1009.3
20260509233504 12 245 0.0 0.0 0.00 0.43 0.43 88 1009.1
20260509232504 12 245 0.0 0.0 0.00 0.43 0.43 88 1009.1
20260509232004 12 245 0.0 4.8 0.00 0.43 0.43 88 1009.2
20260509231504 12 248 0.0 0.0 0.00 0.43 0.43 89 1009.2
20260509231004 12 248 0.0 0.0 0.00 0.43 0.43 89 1009.2
20260509230504 12 248 0.0 0.0 0.00 0.43 0.43 89 1009.2
20260509230004 12 248 0.0 0.0 0.00 0.43 0.43 89 1009.3
20260509225504 12 248 0.0 0.0 0.00 0.43 0.43 89 1009.3
20260509225004 12 248 0.0 0.0 0.00 0.43 0.43 89 1009.3
20260509224504 12 248 0.0 0.0 0.00 0.43 0.43 89 1009.4
20260509223504 12 248 0.0 0.0 0.00 0.43 0.43 89 1009.4
20260509223004 12 248 0.0 1.6 0.00 0.43 0.43 89 1009.3
20260509222503 12 248 0.0 3.2 0.03 0.43 0.43 89 1009.2
20260509222004 12 248 0.0 3.2 0.03 0.43 0.43 89 1009.3
20260509221504 12 248 0.0 1.6 0.03 0.43 0.43 89 1009.3
20260509220504 12 248 0.0 0.0 0.03 0.43 0.43 90 1009.3
20260509215504 12 248 0.0 0.0 0.03 0.43 0.43 90 1009.5
20260509214504 12 248 0.0 4.8 0.03 0.43 0.43 90 1009.7
20260509214003 12 249 0.0 0.0 0.05 0.43 0.43 90 1009.7
20260509213504 12 249 0.0 0.0 0.05 0.43 0.43 90 1009.8
20260509213004 12 249 0.0 0.0 0.08 0.43 0.43 90 1009.8
20260509212503 12 249 0.0 0.0 0.05 0.41 0.41 90 1009.9
20260509211503 12 249 0.0 0.0 0.08 0.41 0.41 90 1009.8
20260509211004 12 249 0.0 0.0 0.10 0.41 0.41 90 1009.9
20260509210504 12 249 0.0 0.0 0.10 0.41 0.41 90 1009.9
20260509210004 12 249 0.0 0.0 0.10 0.41 0.41 90 1009.9
20260509205504 12 249 0.0 0.0 0.10 0.41 0.41 90 1009.9
20260509204504 12 250 0.0 0.0 0.10 0.41 0.41 90 1009.9
20260509203504 12 250 1.6 4.8 0.10 0.38 0.38 89 1010.1
20260509203004 12 250 0.0 0.0 0.08 0.36 0.36 90 1010.2
20260509202504 12 250 0.0 0.0 0.08 0.36 0.36 90 1010.3
20260509202004 12 250 0.0 0.0 0.05 0.33 0.33 90 1010.3
20260509201504 12 250 0.0 4.8 0.08 0.33 0.33 89 1010.4
20260509201003 12 250 0.0 0.0 0.05 0.30 0.30 89 1010.4
20260509200503 12 250 0.0 0.0 0.05 0.30 0.30 89 1010.4
20260509200004 12 250 0.0 4.8 0.05 0.30 0.30 89 1010.5
20260509195503 12 250 0.0 4.8 0.08 0.30 0.30 89 1010.5
20260509195004 12 271 0.0 0.0 0.08 0.30 0.30 89 1010.6
20260509194504 12 271 0.0 3.2 0.10 0.30 0.30 89 1010.7
20260509194003 12 271 0.0 3.2 0.10 0.30 0.30 89 1010.7
20260509193504 12 272 1.6 4.8 0.10 0.28 0.28 89 1010.7